Time,TemperatureF,DewpointF,PressureIn,WindDirection,WindDirectionDegrees,WindSpeedMPH,WindSpeedGustMPH,Humidity,HourlyPrecipIn,Conditions,Clouds,dailyrainin,SoftwareType,DateUTC
2013-03-20 08:50:00,81.2,70.1,29.93,East,91,10.0,17.0,69,0.00,,,0.00,Wunderground v.1.15,2013-03-20 12:50:00,
2013-03-20 09:00:00,81.1,70.4,29.93,ENE,69,9.0,9.0,70,0.00,,,0.00,Wunderground v.1.15,2013-03-20 13:00:00,
2013-03-20 09:10:00,81.4,70.2,29.93,East,100,9.0,9.0,69,0.00,,,0.00,Wunderground v.1.15,2013-03-20 13:10:00,
2013-03-20 09:20:00,82.0,70.0,29.94,East,94,9.0,10.0,67,0.00,,,0.00,Wunderground v.1.15,2013-03-20 13:20:00,
2013-03-20 09:30:00,81.8,70.2,29.94,ENE,76,11.0,11.0,68,0.00,,,0.00,Wunderground v.1.15,2013-03-20 13:30:00,
2013-03-20 09:40:00,81.2,69.6,29.94,East,94,10.0,10.0,68,0.00,,,0.00,Wunderground v.1.15,2013-03-20 13:40:00,
2013-03-20 09:50:00,81.4,69.8,29.94,ESE,115,10.0,13.0,68,0.00,,,0.00,Wunderground v.1.15,2013-03-20 13:50:00,
2013-03-20 10:00:00,82.0,70.4,29.94,SE,128,11.0,13.0,68,0.00,,,0.00,Wunderground v.1.15,2013-03-20 14:00:00,
2013-03-20 10:10:00,82.2,71.0,29.95,East,94,10.0,14.0,69,0.00,,,0.00,Wunderground v.1.15,2013-03-20 14:10:00,
2013-03-20 10:20:00,83.0,71.8,29.95,ENE,74,11.0,11.0,69,0.00,,,0.00,Wunderground v.1.15,2013-03-20 14:20:00,
2013-03-20 10:30:00,82.0,70.4,29.95,East,84,11.0,12.0,68,0.00,,,0.00,Wunderground v.1.15,2013-03-20 14:30:00,
2013-03-20 10:40:00,82.6,70.5,29.95,East,93,11.0,15.0,67,0.00,,,0.00,Wunderground v.1.15,2013-03-20 14:40:00,
2013-03-20 10:50:00,83.0,71.3,29.95,East,82,12.0,12.0,68,0.00,,,0.00,Wunderground v.1.15,2013-03-20 14:50:00,
2013-03-20 11:00:00,83.4,71.3,29.95,East,99,12.0,15.0,67,0.00,,,0.00,Wunderground v.1.15,2013-03-20 15:00:00,
2013-03-20 11:10:00,83.4,70.8,29.95,ESE,113,11.0,14.0,66,0.00,,,0.00,Wunderground v.1.15,2013-03-20 15:10:00,
2013-03-20 11:20:00,83.4,70.8,29.95,East,101,11.0,16.0,66,0.00,,,0.00,Wunderground v.1.15,2013-03-20 15:20:00,
2013-03-20 11:30:00,83.6,70.6,29.95,ESE,103,11.0,11.0,65,0.00,,,0.00,Wunderground v.1.15,2013-03-20 15:30:00,
2013-03-20 11:40:00,83.6,71.0,29.95,ENE,76,12.0,16.0,66,0.00,,,0.00,Wunderground v.1.15,2013-03-20 15:40:00,
2013-03-20 11:50:00,84.0,71.0,29.94,ENE,74,11.0,11.0,65,0.00,,,0.00,Wunderground v.1.15,2013-03-20 15:50:00,
2013-03-20 12:00:00,83.4,70.4,29.94,East,92,12.0,19.0,65,0.00,,,0.00,Wunderground v.1.15,2013-03-20 16:00:00,
2013-03-20 12:10:00,84.0,70.5,29.95,SE,131,11.0,11.0,64,0.00,,,0.00,Wunderground v.1.15,2013-03-20 16:10:00,
2013-03-20 12:20:00,84.0,71.0,29.94,East,85,11.0,18.0,65,0.00,,,0.00,Wunderground v.1.15,2013-03-20 16:20:00,
2013-03-20 12:30:00,84.0,71.0,29.94,ESE,109,12.0,14.0,65,0.00,,,0.00,Wunderground v.1.15,2013-03-20 16:30:00,
2013-03-20 12:40:00,84.3,70.8,29.93,East,93,12.0,17.0,64,0.00,,,0.00,Wunderground v.1.15,2013-03-20 16:40:00,
2013-03-20 12:50:00,84.3,70.3,29.92,East,85,12.0,12.0,63,0.00,,,0.00,Wunderground v.1.15,2013-03-20 16:50:00,
2013-03-20 13:00:00,84.0,70.5,29.92,East,96,12.0,12.0,64,0.00,,,0.00,Wunderground v.1.15,2013-03-20 17:00:00,
2013-03-20 13:10:00,84.5,70.5,29.91,East,82,10.0,14.0,63,0.00,,,0.00,Wunderground v.1.15,2013-03-20 17:10:00,
2013-03-20 13:20:00,84.0,70.5,29.90,ESE,121,13.0,13.0,64,0.00,,,0.00,Wunderground v.1.15,2013-03-20 17:20:00,
2013-03-20 13:30:00,83.8,69.4,29.90,East,99,12.0,13.0,62,0.00,,,0.00,Wunderground v.1.15,2013-03-20 17:30:00,
2013-03-20 13:40:00,83.6,70.1,29.90,ESE,106,12.0,16.0,64,0.00,,,0.00,Wunderground v.1.15,2013-03-20 17:40:00,
2013-03-20 13:50:00,83.2,69.8,29.89,NE,53,13.0,13.0,64,0.00,,,0.00,Wunderground v.1.15,2013-03-20 17:50:00,
2013-03-20 14:00:00,83.8,69.4,29.89,East,92,11.0,17.0,62,0.00,,,0.00,Wunderground v.1.15,2013-03-20 18:00:00,
2013-03-20 14:10:00,83.6,70.1,29.88,ESE,105,13.0,13.0,64,0.00,,,0.00,Wunderground v.1.15,2013-03-20 18:10:00,
2013-03-20 14:20:00,83.2,69.8,29.87,East,86,13.0,13.0,64,0.00,,,0.00,Wunderground v.1.15,2013-03-20 18:20:00,
2013-03-20 14:30:00,83.6,70.6,29.87,East,84,11.0,13.0,65,0.00,,,0.00,Wunderground v.1.15,2013-03-20 18:30:00,
2013-03-20 14:40:00,82.8,69.4,29.87,East,94,13.0,15.0,64,0.00,,,0.00,Wunderground v.1.15,2013-03-20 18:40:00,
2013-03-20 14:50:00,82.6,69.6,29.86,ESE,113,13.0,15.0,65,0.00,,,0.00,Wunderground v.1.15,2013-03-20 18:50:00,
2013-03-20 15:00:00,82.4,69.9,29.86,SE,124,12.0,13.0,66,0.00,,,0.00,Wunderground v.1.15,2013-03-20 19:00:00,
2013-03-20 15:10:00,83.0,69.6,29.86,ESE,113,11.0,11.0,64,0.00,,,0.00,Wunderground v.1.15,2013-03-20 19:10:00,
2013-03-20 15:20:00,83.2,68.8,29.86,East,86,11.0,15.0,62,0.00,,,0.00,Wunderground v.1.15,2013-03-20 19:20:00,
2013-03-20 15:30:00,83.0,69.1,29.86,ESE,121,11.0,13.0,63,0.00,,,0.00,Wunderground v.1.15,2013-03-20 19:30:00,